Date String (YYYY-MM-DD hh:mm:ss) UTC,Instrument flags,Ambient pressure (hPa),Sample flow (lpm),Bypass flow (lpm),Sample temperature (°C),Ambient temperature (°C),ASC tube jacket temperature (°C),LED temperature (°C),Box temperature (°C),Sample RH (%),Span deviation,Mass concentration (μg/m³),Mass concentration (μg/m³),Mass concentration (μg/m³)
DateTimeUTC,F1_M11,P_M11,Q1_M11,Q2_M11,T1_M11,T2_M11,T3_M11,T4_M11,T5_M11,U1_M11,ZSPAN_M11,X0_M11,X2_M11,X1_M11
2022-02-20 16:00:00,,0819.6,4.99,0.00,22.4,21.5,00.0,31.4,24.1,05.9,0000.0,0001.41,0000.67,0000.42
2022-02-20 16:01:00,,0819.5,4.99,0.00,22.3,21.5,00.0,31.4,24.1,05.7,0000.0,0001.28,0000.65,0000.42
2022-02-20 16:02:00,,0819.4,5.01,0.00,22.3,21.5,00.0,31.4,24.0,05.4,0000.0,0001.24,0000.65,0000.42
2022-02-20 16:03:00,,0819.5,4.99,0.00,22.3,21.5,00.0,31.4,24.0,05.7,0000.0,0001.21,0000.63,0000.42
2022-02-20 16:04:00,,0819.5,5.01,0.00,22.3,21.4,00.0,31.4,24.1,05.5,0000.0,0001.08,0000.64,0000.42
2022-02-20 16:05:00,,0819.6,5.00,0.00,22.3,21.4,00.0,31.4,24.0,05.2,0000.0,0000.88,0000.58,0000.41
2022-02-20 16:06:00,,0819.6,4.99,0.00,22.3,21.4,00.0,31.3,24.0,05.5,0000.0,0000.90,0000.59,0000.41
2022-02-20 16:07:00,,0819.5,5.01,0.00,22.3,21.4,00.0,31.3,24.0,05.5,0000.0,0000.98,0000.61,0000.40
2022-02-20 16:08:00,,0819.5,4.99,0.00,22.3,21.5,00.0,31.3,24.0,05.4,0000.0,0000.93,0000.58,0000.40
2022-02-20 16:09:00,,0819.7,4.99,0.00,22.4,22.2,00.0,31.4,24.2,05.4,0000.0,0000.89,0000.57,0000.40
2022-02-20 16:10:00,,0819.6,5.02,0.00,22.5,23.0,00.0,31.4,24.5,05.6,0000.0,0000.89,0000.57,0000.40
2022-02-20 16:11:00,,0819.6,4.98,0.00,22.6,23.1,00.0,31.5,24.7,05.4,0000.0,0000.87,0000.56,0000.39
2022-02-20 16:12:00,,0819.6,5.00,0.00,22.7,22.9,00.0,31.5,24.7,05.2,0000.0,0000.91,0000.57,0000.39
2022-02-20 16:13:00,,0819.6,5.00,0.00,22.7,22.7,00.0,31.5,24.6,05.6,0000.0,0001.18,0000.60,0000.39
2022-02-20 16:14:00,,0819.7,4.99,0.00,22.6,22.6,00.0,31.5,24.5,05.6,0000.0,0002.07,0000.61,0000.39
2022-02-20 16:15:00,,0819.8,5.02,0.00,22.6,22.4,00.0,31.5,24.4,05.4,0000.0,0003.02,0000.63,0000.39
2022-02-20 16:16:00,,0819.7,5.01,0.00,22.6,22.3,00.0,31.5,24.3,05.7,0000.0,0003.13,0000.66,0000.40
2022-02-20 16:17:00,,0819.4,4.99,0.00,22.6,22.1,00.0,31.5,24.3,05.4,0000.0,0003.07,0000.64,0000.40
2022-02-20 16:18:00,,0819.4,5.00,0.00,22.6,22.1,00.0,31.5,24.3,05.1,0000.0,0002.99,0000.62,0000.39
2022-02-20 16:19:00,,0819.5,5.00,0.00,22.6,22.0,00.0,31.5,24.3,05.0,0000.0,0002.95,0000.61,0000.39
2022-02-20 16:20:00,,0819.5,4.99,0.00,22.5,21.9,00.0,31.5,24.1,04.8,0000.0,0002.98,0000.61,0000.39
2022-02-20 16:21:00,,0819.5,5.01,0.00,22.5,21.8,00.0,31.5,24.1,05.1,0000.0,0002.96,0000.60,0000.39
2022-02-20 16:22:00,,0819.4,5.01,0.00,22.4,21.8,00.0,31.5,24.1,05.2,0000.0,0002.95,0000.61,0000.39
2022-02-20 16:23:00,,0819.3,4.99,0.00,22.4,21.7,00.0,31.5,24.1,05.2,0000.0,0002.94,0000.60,0000.39
2022-02-20 16:24:00,,0819.5,4.99,0.00,22.4,21.7,00.0,31.5,24.1,05.4,0000.0,0002.71,0000.58,0000.40
2022-02-20 16:25:00,,0819.5,5.01,0.00,22.4,21.7,00.0,31.5,24.2,05.4,0000.0,0002.16,0000.59,0000.40
2022-02-20 16:26:00,,0819.5,4.98,0.00,22.4,21.7,00.0,31.5,24.1,04.7,0000.0,0001.19,0000.59,0000.40
2022-02-20 16:27:00,,0819.6,5.01,0.00,22.4,21.7,00.0,31.5,24.1,04.9,0000.0,0000.92,0000.55,0000.39
2022-02-20 16:28:00,,0819.7,4.99,0.00,22.4,21.7,00.0,31.5,24.1,05.1,0000.0,0001.14,0000.55,0000.40
2022-02-20 16:29:00,,0819.6,5.00,0.00,22.4,21.6,00.0,31.5,24.1,05.6,0000.0,0001.13,0000.54,0000.40
2022-02-20 16:30:00,,0819.6,5.02,0.00,22.4,21.6,00.0,31.5,24.1,06.1,0000.0,0001.16,0000.56,0000.41
2022-02-20 16:31:00,,0819.6,5.00,0.00,22.4,21.6,00.0,31.5,24.2,06.1,0000.0,0001.18,0000.57,0000.42
2022-02-20 16:32:00,,0819.6,4.99,0.00,22.4,21.6,00.0,31.4,24.1,05.8,0000.0,0001.82,0000.58,0000.42
2022-02-20 16:33:00,,0819.6,4.99,0.00,22.4,21.6,00.0,31.4,24.1,06.0,0000.0,0001.97,0000.58,0000.42
2022-02-20 16:34:00,,0819.6,4.99,0.00,22.3,21.5,00.0,31.4,24.0,05.9,0000.0,0001.97,0000.59,0000.42
2022-02-20 16:35:00,,0819.6,5.01,0.00,22.3,21.5,00.0,31.4,24.0,05.2,0000.0,0001.99,0000.59,0000.42
2022-02-20 16:36:00,,0819.8,4.99,0.00,22.3,21.5,00.0,31.4,24.0,05.8,0000.0,0001.91,0000.56,0000.43
2022-02-20 16:37:00,,0819.8,5.00,0.00,22.2,21.4,00.0,31.4,23.9,06.6,0000.0,0001.92,0000.56,0000.43
2022-02-20 16:38:00,,0819.8,5.00,0.00,22.2,21.4,00.0,31.4,23.9,06.7,0000.0,0001.90,0000.55,0000.44
2022-02-20 16:39:00,,0819.8,4.99,0.00,22.2,21.3,00.0,31.3,23.8,06.7,0000.0,0001.58,0000.55,0000.44
2022-02-20 16:40:00,,0819.8,5.01,0.00,22.1,21.3,00.0,31.3,23.8,06.7,0000.0,0001.55,0000.55,0000.45
2022-02-20 16:41:00,,0819.8,4.99,0.00,22.1,21.3,00.0,31.3,23.8,07.1,0000.0,0001.56,0000.56,0000.45
2022-02-20 16:42:00,,0819.8,5.01,0.00,22.1,21.2,00.0,31.3,23.7,07.0,0000.0,0002.86,0000.56,0000.45
2022-02-20 16:43:00,,0819.7,4.99,0.00,22.0,21.2,00.0,31.2,23.7,06.8,0000.0,0002.79,0000.59,0000.45
2022-02-20 16:44:00,,0819.7,4.99,0.00,22.0,21.2,00.0,31.2,23.6,06.3,0000.0,0002.58,0000.60,0000.45
2022-02-20 16:45:00,,0819.8,5.01,0.00,22.0,21.2,00.0,31.2,23.6,06.0,0000.0,0002.59,0000.60,0000.45
2022-02-20 16:46:00,,0819.8,4.99,0.00,22.0,21.3,00.0,31.2,23.6,05.8,0000.0,0002.53,0000.58,0000.45
2022-02-20 16:47:00,,0819.7,5.00,0.00,22.0,21.3,00.0,31.2,23.7,05.8,0000.0,0002.51,0000.58,0000.44
2022-02-20 16:48:00,,0819.8,5.00,0.00,22.0,21.3,00.0,31.1,23.6,05.6,0000.0,0002.52,0000.58,0000.43
2022-02-20 16:49:00,,0819.8,5.01,0.00,22.0,21.3,00.0,31.1,23.6,05.8,0000.0,0002.52,0000.59,0000.43
2022-02-20 16:50:00,,0819.7,5.00,0.00,22.0,21.3,00.0,31.1,23.6,05.7,0000.0,0002.57,0000.61,0000.43
2022-02-20 16:51:00,,0819.8,5.00,0.00,22.0,21.3,00.0,31.1,23.7,05.7,0000.0,0002.59,0000.62,0000.43
2022-02-20 16:52:00,,0819.7,5.00,0.00,22.0,21.4,00.0,31.1,23.8,06.0,0000.0,0002.64,0000.62,0000.42
2022-02-20 16:53:00,,0819.8,5.01,0.00,22.0,21.4,00.0,31.1,23.8,05.7,0000.0,0001.49,0000.62,0000.41
2022-02-20 16:54:00,,0819.8,4.99,0.00,22.0,21.3,00.0,31.1,23.7,06.2,0000.0,0000.87,0000.57,0000.40
2022-02-20 16:55:00,,0819.8,5.00,0.00,22.0,21.3,00.0,31.1,23.7,06.9,0000.0,0000.95,0000.60,0000.40
2022-02-20 16:56:00,,0819.8,5.00,0.00,22.0,21.4,00.0,31.1,23.7,07.3,0000.0,0001.11,0000.59,0000.41
2022-02-20 16:57:00,,0819.8,5.01,0.00,22.0,21.4,00.0,31.1,23.7,07.2,0000.0,0002.08,0000.62,0000.42
2022-02-20 16:58:00,,0819.8,4.99,0.00,22.0,21.4,00.0,31.1,23.7,07.4,0000.0,0002.18,0000.67,0000.42
2022-02-20 16:59:00,,0819.8,5.01,0.00,22.0,21.4,00.0,31.1,23.7,07.4,0000.0,0002.21,0000.69,0000.44
